Regional Weather Roundup
Issued by NWS

Home | Current Version | Previous Version | Graphics & Text | Print | Product List | Glossary On
Versions: 1 2 3 4 5 6 7 8 9 10 11 12 13 14 15 16 17 18 19 20 21 22 23 24 25 26 27 28 29 30 31 32 33 34 35 36 37 38 39 40 41 42 43 44 45 46 47 48 49 50
000
ASUS44 KMEG 272210
RWRTN
TENNESSEE HOURLY STATE WEATHER ROUNDUP
NATIONAL WEATHER SERVICE MEMPHIS TN
500 PM CDT WED MAY 27 2015

TNZ002-004-019-021-049-052-054-088>092-272300-
WEST TENNESSEE

CITY           SKY/WX    TMP DP  RH WIND       PRES   REMARKS
MEMPHIS INTL   CLOUDY    78  66  66 S6        30.10S
NWS MEMPHIS      N/A     78 N/A N/A MISG        N/A
JACKSON        CLOUDY    75  67  76 CALM      30.10F
DYERSBURG      CLOUDY    77  57  50 CALM      30.09F
PARIS          SUNNY     73  66  78 SW7       30.11F
LEXINGTON      SUNNY     70  66  88 CALM      30.11F
$$

TNZ008-025-027-028-033-062-065-066-272300-
NORTH MIDDLE TENNESSEE

CITY           SKY/WX    TMP DP  RH WIND       PRES   REMARKS
NASHVILLE      CLOUDY    71  68  90 S5        30.14F
CLARKSVILLE    CLOUDY    73  66  78 S6        30.11F
SMYRNA         CLOUDY    70  67  90 S7        30.15F
COOKEVILLE     SUNNY     70  66  88 NE29G190  30.18F
CROSSVILLE     PTSUNNY   77  64  64 CALM      30.21S
$$

TNZ061-075-076-078-094-096-097-272300-
SOUTH MIDDLE TENNESSEE

CITY           SKY/WX    TMP DP  RH WIND       PRES   REMARKS
FAYETTEVILLE     N/A    N/A N/A N/A MISG      30.16R
TULLAHOMA      MOSUNNY   79  66  65 N8        30.18R
WINCHESTER     SUNNY     81  64  57 VRB5      30.15S
MCMINNVILLE    SUNNY     75  66  73 N6        30.18S
COLUMBIA       CLOUDY    70  68  94 CALM      30.17R VSB 1/2
SHELBYVILLE    MOSUNNY   73  68  83 N9        30.18S
$$

TNZ017-018-042-046-047-272300-
NORTHEAST TENNESSEE

CITY           SKY/WX    TMP DP  RH WIND       PRES   REMARKS
TRI CITIES     MOSUNNY   83  55  38 SW7       30.17F
ELIZABETHTON   CLEAR     82  57  42 CALM      30.17F
$$

TNZ012-013-036-069-073-074-272300-
CENTRAL EAST TENNESSEE

CITY           SKY/WX    TMP DP  RH WIND       PRES   REMARKS
KNOXVILLE      PTSUNNY   82  59  45 W8        30.16F
OAK RIDGE      MOSUNNY   83  63  50 VRB5      30.18S
GATLINBURG       N/A     82  61  47 VRB6      30.15F
MORRISTOWN     CLEAR     82  61  47 W10       30.19S
$$

TNZ083-085-099-272300-
SOUTHEAST TENNESSEE

CITY           SKY/WX    TMP DP  RH WIND       PRES   REMARKS
CHATTANOOGA    PTSUNNY   83  65  54 VRB7      30.14F
$$

SKY/WX REPORTED AS FAIR MEANS FEW OR NO CLOUDS BELOW
12 THOUSAND FEET.



USA.gov is the U.S. government's official web portal to all federal, state and local government web resources and services.